{"data":{"norad_id":69090,"intl_designator":"2026-104T","name":"QIANFAN-144","alt_names":[],"object_type":"PAYLOAD","status":"ACTIVE","operator":null,"country":"PRC","launch_date":"2026-05-12","launch_site_code":"TAISC","launch_vehicle":null,"mission":null,"orbit_class":"UNKNOWN","rcs_meters":null,"size_class":null,"mass_kg":null,"dimensions":null,"purposes":[],"wikipedia_slug":null,"has_3d_model":false,"image_url":null,"decayed_at":null,"tle_current":{"epoch":"2026-09-20T03:41:14.150400Z","epoch_age_seconds":53235,"freshness":"FRESH","line1":"1 69090U 26104T   26263.15363600  .00000068  00000+0  87240-4 0  9998","line2":"2 69090  88.9905 331.7744 0002540 103.2593 256.8842 13.51020815 17984","mean_motion":13.51020815,"eccentricity":0.000254,"inclination_deg":88.9905,"raan_deg":331.7744,"arg_perigee_deg":103.2593,"mean_anomaly_deg":256.8842,"bstar":8.724e-5,"rev_number":1798,"period_min":106.58607062246,"perigee_km":1066.61365088,"apogee_km":1070.3965450658,"semimajor_km":7446.6420979729,"source":"CELESTRAK","updated_at":"2026-09-20T09:00:24.674652Z"}}}